星链-37405(STARLINK-37405)

导读

STARLINK-37405(NORAD编号68809)是美国SpaceX公司星链(Starlink)卫星互联网星座的成员之一,属于低地球轨道(LEO)通信卫星。星链项目计划部署约4.2万颗低轨卫星,旨在为全球提供高速低延迟互联网服务,尤其覆盖地面基础设施薄弱的偏远区域。 截至2026年4月,SpaceX已完成超过10200颗星链卫星发射,STARLINK-37409随批量发射入轨后,运行在约550公里高度的近圆轨道,轨道周期约96分钟,倾角约53度,通过星间链路和地面关口站,为用户提供宽带接入服务,支撑个人消费、商业及应急通信等应用。作为星链大规模组网的一环,它进一步拓展了星座的全球覆盖能力与服务容量。

Basic Information
目录编号:
68809
目录名称:
STARLINK-37405
国际标识:
2026-089H
轨道中心:
EARTH
卫星名称:
星链-37405
卫星全名:
星链-37405(STARLINK-37405)
卫星状态:
在轨 (已飞行134 天)
发射日期:
2026-04-23 UTC
国别 :
美国 (US)
星等 :
--
Orbit Information
数据来源 国际轨道数据
星历时间: 2026-09-03T20:20:33+0800
18小时前
查看轨道信息
半长轴: 6843.671km
偏心率: 0.0001954
轨道倾角: 97.286°
近地点辐角 105.592°
升交点赤经 92.481°
平近点角 254.554°
近地点: 464.196km
远地点: 466.872km
周期: 93.906分钟
每日圈数: 15.334481
Detailed Information
固有亮度:
5
最大亮度:
2.5
卫星平台:
Starlink V1.0
覆盖范围:
全球
运营商:
太空探索技术公司
运营商所在国:
美国
制造商(研发单位):
太空探索技术公司
制造商所在国:
美国
使用方式:
暂无
Satellite Introduction
Starlink 计划是 SpaceX 推出的全球卫星互联网项目,通过发射低轨道卫星,为全球尤其是偏远地区提供高速、低延迟的互联网服务。自 2019 年起,Starlink 已部署数千颗卫星,旨在缩小全球数字鸿沟,推动互联网普及。该项目还为军事、航空等行业提供通信支持,带来广泛经济效益。
2D Orbit Map
3D Orbit Map
Orbit Altitude Analysis Chart
Orbit Inclination Analysis Chart
Orbit Comprehensive Analysis Chart
View Comprehensive Chart
Conjunction Data List
Event ID Objects TCA Miss Dist (km) Collision Risk Probability Collision Risk Index (CRI) Action
CDM_260905-135405-298606-880921
2026-09-05T
13:54:22+0000
2.712 km
极远距离
1.353019E-6 低风险 0.38
CDM_260827-202605-328706-880921
2026-08-27T
20:26:16+0000
2.846 km
极远距离
9.560568E-7 极低风险 0.35
CDM_260905-145006-868606-880921
2026-09-05T
14:50:25+0000
2.839 km
极远距离
6.17377E-7 极低风险 0.31